Regional Weather Roundup
Issued by NWS Green Bay, WI

Home | Current Version | Previous Version | Text Only | Print | Product List | Glossary On
Versions: 1 2 3 4 5 6 7 8 9 10 11 12 13 14 15 16 17 18 19 20 21 22 23 24 25 26 27 28 29 30 31 32 33 34 35 36 37 38 39 40 41 42 43 44 45 46 47 48 49 50
222
ASUS43 KGRB 301711
RWRGRB

NORTH-CENTRAL AND NORTHEAST WISCONSIN REGIONAL WEATHER ROUNDUP
NATIONAL WEATHER SERVICE GREEN BAY WI
1200 PM CDT SAT APR 30 2016

WIZ005-009-010>012-018-019-301800-
NORTH CENTRAL WISCONSIN

CITY           SKY/WX    TMP DP  RH WIND       PRES   REMARKS
IRONWOOD         N/A     50  32  50 NE14G23   30.18F
MANITOWISH WTR CLOUDY    51  32  48 NE13G18   30.18S
ARBOR VITAE    PTSUNNY   53  31  44 NE9       30.15F
EAGLE RIVER    PTSUNNY   53  28  37 NE12      30.15F
LAND O LAKES   CLOUDY    52  30  42 E9        30.18F
RHINELANDER    PTSUNNY   53  31  42 E15G21    30.16S
PHILLIPS       CLOUDY    52  32  46 NE10G16   30.14F
ANTIGO         CLOUDY    53  32  45 E14       30.13F
TOMAHAWK       CLOUDY    53  31  44 E9G16     30.15F
MERRILL        CLOUDY    54  33  45 E10G16    30.13F
$$

WIZ013-073-301800-
NORTHEAST WISCONSIN

CITY           SKY/WX    TMP DP  RH WIND       PRES   REMARKS
IRON MOUNTAIN  CLOUDY    56  31  38 E9        30.16F
MARINETTE      MOSUNNY   48  32  53 E16       30.17F
OCONTO         PTSUNNY   51  33  52 NE8G17    30.16F
$$

WIZ017-030-035>037-045-301800-
CENTRAL WISCONSIN

CITY           SKY/WX    TMP DP  RH WIND       PRES   REMARKS
MEDFORD        CLOUDY    53  34  49 E15       30.11S
WAUSAU         CLOUDY    56  31  38 E13       30.10F
MOSINEE        SUNNY     52  32  46 E14G21    30.12F
MARSHFIELD     CLOUDY    52  33  48 E15       30.09F
WISC RAPIDS    CLOUDY    52  33  48 E14       30.12S
STEVENS POINT  CLOUDY    51  34  53 E15       30.11F
WAUPACA        CLOUDY    55  38  51 E12       30.12F
SHAWANO        CLOUDY    55  37  49 E9        30.15S
CLINTONVILLE   CLOUDY    54  34  47 E10G16    30.13S
WAUTOMA        NOT AVBL
$$

WIZ038-039-048-051-301800-
FOX VALLEY

CITY           SKY/WX    TMP DP  RH WIND       PRES   REMARKS
NWS GREEN BAY  CLOUDY    51  41  68 NE13      30.15S
APPLETON       PTSUNNY   52  36  54 E12G22    30.11F
OSHKOSH        PTSUNNY   52  38  58 E15       30.11S
FOND DU LAC    PTSUNNY   53  38  56 E14       30.10F
$$

WIZ022-050-052-301800-
EAST CENTRAL WISCONSIN

CITY           SKY/WX    TMP DP  RH WIND       PRES   REMARKS
EPHRAIM        FAIR      51  32  47 NE9G16    30.16F
STURGEON BAY   PTSUNNY   48  34  57 E10G16    30.19S
MANITOWOC      CLOUDY    52  35  52 MISG      30.15S
SHEBOYGAN      CLOUDY    47  38  71 NE10      30.12F
$$

LMZ563-521-522-541>543-301800-
LAKESHORE

STATION/POSITION TIME  TEMP    WIND        PRES    VSBY  WAVE
                       AIR SEA DIR/SP/G                  HT/PER
                 (UTC) (F)     (DEG/KT/KT) (MB)    (MI)  (FT/S)
SHEBOYGAN LKSHOR 1700   41      20/ 10/ 11 1020.9F
KEWAUNEE LKSHORE 1600   43      30/ 11/ 14 1020.8F
ALGOMA MARINA    1600           60/ 15/ 18   N/A
NORTHPORT PIER   1600   44      60/ 10/ 12 1022.4S
N MID LAKE BUOY  1650   39 39   20/ 10/ 12 1022.5F         1/ 3
CHAMBERS ISLAND  1600   42      20/  9/ 12 1022.4S
MENOMINEE LKSHOR 1600   42      30/ 14/ 16 1021.0S
$$




USA.gov is the U.S. government's official web portal to all federal, state and local government web resources and services.